TimeMDT,TemperatureF,Dew PointF,Humidity,Sea Level PressureIn,VisibilityMPH,Wind Direction,Wind SpeedMPH,Gust SpeedMPH,PrecipitationIn,Events,Conditions,WindDirDegrees,DateUTC
12:00 AM,17,16,92,29.43,,NW,12.7,,,,,320,2013-08-20 06:00:00
12:00 AM,17.1,15.6,94,29.43,-9999.0,NW,12.7,-,N/A,,Unknown,320,2013-08-20 06:00:00
1:00 AM,17.4,16.2,95,29.43,-9999.0,NW,11.5,-,N/A,,Unknown,320,2013-08-20 07:00:00
2:00 AM,17.2,15.4,93,29.42,-9999.0,NNW,9.2,-,0.01,,Unknown,330,2013-08-20 08:00:00
3:00 AM,17.1,15.8,95,29.42,-9999.0,NW,6.9,-,N/A,,Unknown,310,2013-08-20 09:00:00
4:00 AM,16.9,15.3,93,29.42,-9999.0,NW,5.8,-,0.01,,Unknown,310,2013-08-20 10:00:00
5:00 AM,16.9,15.3,93,29.42,-9999.0,NW,5.8,-,N/A,,Unknown,310,2013-08-20 11:00:00
6:00 AM,17,15,89,29.42,,WNW,4.6,,,,,300,2013-08-20 12:00:00
6:00 AM,17.2,15.3,92,29.42,-9999.0,WNW,4.6,-,N/A,,Unknown,290,2013-08-20 12:00:00
7:00 AM,17.2,15.3,92,29.42,-9999.0,WNW,5.8,-,N/A,,Unknown,290,2013-08-20 13:00:00
8:00 AM,17.1,14.9,91,29.42,-9999.0,West,3.5,-,N/A,,Unknown,260,2013-08-20 14:00:00
9:00 AM,18.5,15.1,86,29.41,-9999.0,West,3.5,-,N/A,,Unknown,270,2013-08-20 15:00:00
10:00 AM,18.3,15.1,87,29.41,-9999.0,WSW,3.5,-,0.01,,Unknown,250,2013-08-20 16:00:00
11:00 AM,18.3,15.8,90,29.40,-9999.0,SW,4.6,-,N/A,,Unknown,220,2013-08-20 17:00:00
12:00 PM,18,15,85,29.40,,South,3.5,,,,,190,2013-08-20 18:00:00
12:00 PM,18.5,15.6,89,29.40,-9999.0,South,3.5,-,N/A,,Unknown,190,2013-08-20 18:00:00
1:00 PM,19.2,15.8,87,29.40,-9999.0,South,2.3,-,N/A,,Unknown,180,2013-08-20 19:00:00
2:00 PM,19.6,15.6,85,29.40,-9999.0,SE,2.3,-,N/A,,Unknown,140,2013-08-20 20:00:00
3:00 PM,19.4,15.8,86,29.40,-9999.0,ESE,3.5,-,0.01,,Unknown,120,2013-08-20 21:00:00
4:00 PM,19.6,16.3,87,29.39,-9999.0,East,4.6,-,N/A,,Unknown,100,2013-08-20 22:00:00
5:00 PM,19.8,16.9,89,29.38,-9999.0,East,6.9,-,N/A,,Unknown,80,2013-08-20 23:00:00
6:00 PM,21,18,86,29.38,,East,8.1,,,,,90,2013-08-21 00:00:00
6:00 PM,20.7,18.7,92,29.38,-9999.0,East,8.1,-,N/A,,Unknown,100,2013-08-21 00:00:00
7:00 PM,20.5,19.6,96,29.37,-9999.0,East,11.5,-,N/A,,Unknown,80,2013-08-21 01:00:00
8:00 PM,21.4,20.5,96,29.36,-9999.0,East,10.4,-,0.01,,Unknown,80,2013-08-21 02:00:00
9:00 PM,20.7,19.4,95,29.34,-9999.0,East,11.5,-,N/A,,Unknown,100,2013-08-21 03:00:00
11:00 PM,20.7,18.9,93,29.31,-9999.0,ENE,17.3,-,N/A,,Unknown,70,2013-08-21 05:00:00